Flag for Germany Weather past 2 weeks in Troisdorf, North Rhine-Westphalia, Germany

Now
36 °F

Partly cloudy.


Feels Like: 32 °F
Forecast: 37 / 44 °F
Wind: 5 mph from West

Location: Koeln / Bonn

Current Time: Jan 27, 2015 at 6:55:50 AM

Latest Report: Jan 27, 2015 at 6:20 AM


Visibility: N/A

Pressure: 30.18 "Hg

Humidity: 93%

Dew point: 34 °F

Location of TroisdorfLocation

Historic Weather in Troisdorf — Graph

°F

Troisdorf temperature yesterday

Maximum temperature yesterday: 43 °F (at 7:50 PM)
Minimum temperature yesterday: 34 °F (at 4:20 AM)
Average temperature yesterday: 37 °F

Past Weeks' High & Low Weather Summary

 TemperatureHumidityPressure
High54 °F (Jan 13, 12:20 PM)100% (Jan 14, 4:20 AM)30.42 "Hg (Jan 14, 4:20 AM)
Low27 °F (Jan 19, 7:20 AM)54% (Jan 13, 12:20 PM)29.50 "Hg (Jan 15, 2:50 PM)
Average37 °F83%29.97 "Hg
* Reported Jan 12 5:20 AM — Jan 27 5:20 AM, Troisdorf, Weather by CustomWeather, © 2014

Note: Actual official high and low records may vary slightly from our data, if they occured in-between our weather recording intervals... More about our weather records

Advertising

Troisdorf weather history for previous 24 hours

 ConditionsComfort  
Time TempWeatherWind HumidityBarometerVisibility
5:20 AM
Jan 27
36 °FPassing clouds.7 mph93%30.18 "HgN/A
4:50 AM37 °FPassing clouds.7 mph87%30.15 "HgN/A
4:20 AM36 °FPassing clouds.8 mph93%30.15 "HgN/A
3:50 AM37 °FPassing clouds.9 mph87%30.15 "HgN/A
3:20 AM37 °FPassing clouds.9 mph87%30.15 "HgN/A
2:50 AM37 °FPartly cloudy.10 mph93%30.15 "HgN/A
2:20 AM39 °FPartly cloudy.10 mph87%30.15 "HgN/A
1:50 AM39 °FPartly cloudy.14 mph87%30.12 "HgN/A
1:20 AM39 °FSprinkles. Partly cloudy.12 mph87%30.12 "HgN/A
12:50 AM37 °FPassing clouds.10 mph93%30.12 "HgN/A
12:20 AM39 °FPassing clouds.10 mph87%30.12 "HgN/A
11:50 PM
Jan 26
39 °FPassing clouds.10 mph87%30.12 "HgN/A
11:20 PM39 °FPassing clouds.12 mph87%30.12 "HgN/A
10:50 PM39 °FPartly cloudy.14 mph93%30.12 "HgN/A
10:20 PM39 °FPartly cloudy.10 mph87%30.09 "HgN/A
9:50 PM39 °FPassing clouds.13 mph93%30.09 "HgN/A
9:20 PM41 °FSprinkles. Passing clouds.13 mph87%30.09 "HgN/A
8:50 PM41 °FPartly cloudy.18 mph87%30.09 "HgN/A
8:20 PM41 °FPassing clouds.17 mph87%30.09 "HgN/A
7:50 PM43 °FPassing clouds.13 mph93%30.07 "HgN/A
7:20 PM41 °FPartly cloudy.7 mph93%30.07 "HgN/A
6:50 PM41 °FLight rain. Passing clouds.8 mph100%30.07 "HgN/A
6:20 PM41 °FLight rain. Fog.5 mph100%30.07 "Hg2 mi
5:50 PM39 °FDrizzle. Fog.3 mph100%30.04 "Hg2 mi
5:20 PM39 °FDrizzle. Fog.6 mph100%30.04 "Hg1 mi
4:50 PM39 °FDrizzle. Fog.8 mph100%30.04 "Hg2 mi
4:20 PM39 °FDrizzle. Fog.8 mph100%30.04 "Hg1 mi
3:50 PM39 °FDrizzle. Fog.8 mph100%30.07 "Hg1 mi
3:20 PM37 °FDrizzle. Fog.9 mph100%30.07 "Hg2 mi
2:50 PM37 °FDrizzle. Fog.10 mph100%30.07 "Hg2 mi
2:20 PM37 °FDrizzle. Fog.10 mph100%30.07 "Hg2 mi
1:50 PM37 °FDrizzle. Fog.9 mph100%30.09 "Hg2 mi
1:20 PM37 °FDrizzle. More clouds than sun.9 mph100%30.09 "Hg2 mi
12:50 PM37 °FDrizzle. More clouds than sun.10 mph93%30.12 "HgN/A
12:20 PM37 °FDrizzle. More clouds than sun.10 mph93%30.12 "Hg4 mi
11:50 AM37 °FDrizzle. Fog.10 mph100%30.15 "Hg3 mi
11:20 AM37 °FDrizzle. Fog.9 mph100%30.15 "Hg2 mi
10:50 AM36 °FDrizzle. Fog.8 mph100%30.18 "Hg1 mi
10:20 AM36 °FDrizzle. Fog.8 mph100%30.18 "Hg3 mi
9:50 AM36 °FDrizzle. Low clouds.7 mph93%30.18 "Hg4 mi
9:20 AM36 °FDrizzle. Low clouds.7 mph93%30.18 "Hg5 mi
8:50 AM36 °FDrizzle. Low clouds.7 mph93%30.21 "HgN/A
8:20 AM36 °FDrizzle. Low clouds.7 mph93%30.21 "HgN/A
7:50 AM36 °FDrizzle. Low clouds.9 mph93%30.21 "HgN/A
7:20 AM36 °FDrizzle. Low clouds.9 mph93%30.21 "HgN/A
6:50 AM36 °FPassing clouds.8 mph93%30.21 "Hg6 mi
6:20 AM36 °FPassing clouds.6 mph100%30.21 "Hg6 mi
Weather by CustomWeather, © 2014

See weather overviewHow to use our weather pages